User: anonymous
Location: ActonStarParty
(42.4766°N, 71.4538°W)
Time: 15:14:24
(UTC-04:00)
Language:

ITAMSAT 1 - Orbit

View from above orbital plane
View from above orbital plane
View from above satellite
View from above satellite

Ground track
Ground track

The orbit data is extracted from the following two-line orbital elements,

1 22826U 93061D   14206.44745952  .00000034  00000-0  30199-4 0  4787
2 22826 098.6581 152.5414 0009338 171.1238 189.0111 14.30032392 86380
Epoch (UTC): 25 July 2014 10:44:20
Eccentricity: 0.0009338
inclination: 98.6581°
perigee height: 785 km
apogee height: 798 km
right ascension of ascending node: 152.5414°
argument of perigee: 171.1238°
revolutions per day: 14.30032392
mean anomaly at epoch: 189.0111°
orbit number at epoch: 8638

The dashed part of the orbit path shows where the satellite is in the earth's shadow,  

DLR